Date String (YYYY-MM-DD hh:mm:ss) UTC,Instrument flags,Ambient pressure (hPa),Sample flow (lpm),Bypass flow (lpm),Sample temperature (°C),Ambient temperature (°C),ASC tube jacket temperature (°C),LED temperature (°C),Box temperature (°C),Sample RH (%),Span deviation,Mass concentration (μg/m³),Mass concentration (μg/m³),Mass concentration (μg/m³)
DateTimeUTC,F1_M11,P_M11,Q1_M11,Q2_M11,T1_M11,T2_M11,T3_M11,T4_M11,T5_M11,U1_M11,ZSPAN_M11,X0_M11,X2_M11,X1_M11
2022-05-25 14:00:00,,0826.8,4.99,0.00,25.1,24.1,00.0,34.0,27.0,22.0,0000.0,0002.75,0001.89,0001.56
2022-05-25 14:01:00,,0826.9,5.01,0.00,25.1,24.1,00.0,34.0,27.0,21.7,0000.0,0002.90,0001.91,0001.56
2022-05-25 14:02:00,,0826.9,5.01,0.00,25.1,24.1,00.0,34.0,27.0,20.8,0000.0,0002.94,0001.93,0001.57
2022-05-25 14:03:00,,0826.9,4.99,0.00,25.1,24.1,00.0,34.0,27.0,19.5,0000.0,0002.90,0001.93,0001.58
2022-05-25 14:04:00,,0826.9,4.99,0.00,25.1,24.1,00.0,34.0,27.0,19.9,0000.0,0002.80,0001.91,0001.59
2022-05-25 14:05:00,,0826.9,4.99,0.00,25.1,24.1,00.0,34.0,27.0,21.3,0000.0,0002.76,0001.90,0001.59
2022-05-25 14:06:00,,0826.9,5.01,0.00,25.1,24.1,00.0,34.0,27.0,21.7,0000.0,0002.89,0001.95,0001.60
2022-05-25 14:07:00,,0826.9,5.00,0.00,25.1,24.1,00.0,34.0,27.0,22.1,0000.0,0002.92,0001.96,0001.61
2022-05-25 14:08:00,,0826.9,5.00,0.00,25.1,24.1,00.0,34.0,27.0,22.1,0000.0,0002.97,0001.98,0001.63
2022-05-25 14:09:00,,0826.9,4.99,0.00,25.1,24.1,00.0,34.0,27.0,22.1,0000.0,0003.17,0001.98,0001.64
2022-05-25 14:10:00,,0827.0,5.01,0.00,25.1,24.1,00.0,34.0,27.0,22.3,0000.0,0003.15,0001.96,0001.65
2022-05-25 14:11:00,,0827.0,5.00,0.00,25.1,24.1,00.0,34.0,27.0,22.0,0000.0,0003.12,0001.95,0001.67
2022-05-25 14:12:00,,0827.0,4.98,0.00,25.1,24.1,00.0,34.0,27.0,20.9,0000.0,0003.11,0001.98,0001.69
2022-05-25 14:13:00,,0827.0,5.01,0.00,25.1,24.1,00.0,34.0,27.0,21.4,0000.0,0003.30,0002.03,0001.71
2022-05-25 14:14:00,,0826.9,5.00,0.00,25.1,24.1,00.0,34.0,27.0,21.6,0000.0,0003.60,0002.11,0001.72
2022-05-25 14:15:00,,0827.0,4.99,0.00,25.1,24.1,00.0,34.0,27.0,21.3,0000.0,0003.68,0002.14,0001.73
2022-05-25 14:16:00,,0826.9,5.01,0.00,25.1,24.1,00.0,34.0,27.0,20.7,0000.0,0003.68,0002.15,0001.75
2022-05-25 14:17:00,,0827.0,4.99,0.00,25.1,24.1,00.0,34.0,27.0,21.1,0000.0,0003.65,0002.17,0001.78
2022-05-25 14:18:00,,0827.0,5.01,0.00,25.1,24.1,00.0,34.0,27.0,21.4,0000.0,0003.70,0002.20,0001.78
2022-05-25 14:19:00,,0826.9,5.00,0.00,25.1,24.1,00.0,34.0,27.0,21.3,0000.0,0003.76,0002.25,0001.78
2022-05-25 14:20:00,,0826.9,4.99,0.00,25.1,24.1,00.0,34.0,27.0,20.2,0000.0,0003.58,0002.26,0001.79
2022-05-25 14:21:00,,0826.9,5.01,0.00,25.1,24.1,00.0,34.0,27.1,20.7,0000.0,0003.56,0002.28,0001.80
2022-05-25 14:22:00,,0827.0,4.99,0.00,25.1,24.1,00.0,34.0,27.1,21.1,0000.0,0003.54,0002.29,0001.80
2022-05-25 14:23:00,,0826.9,5.00,0.00,25.1,24.1,00.0,34.0,27.0,20.7,0000.0,0003.49,0002.30,0001.82
2022-05-25 14:24:00,,0826.9,5.01,0.00,25.1,24.1,00.0,34.0,27.0,21.3,0000.0,0003.41,0002.27,0001.82
2022-05-25 14:25:00,,0826.9,4.99,0.00,25.1,24.1,00.0,34.0,27.1,21.9,0000.0,0003.29,0002.27,0001.82
2022-05-25 14:26:00,,0826.9,5.01,0.00,25.1,24.1,00.0,34.0,27.1,22.2,0000.0,0003.39,0002.31,0001.84
2022-05-25 14:27:00,,0826.9,4.99,0.00,25.1,24.1,00.0,34.0,27.1,20.7,0000.0,0003.40,0002.30,0001.85
2022-05-25 14:28:00,,0826.9,4.99,0.00,25.1,24.1,00.0,34.0,27.1,20.8,0000.0,0003.41,0002.29,0001.84
2022-05-25 14:29:00,,0826.8,5.01,0.00,25.1,24.1,00.0,34.0,27.1,20.4,0000.0,0003.46,0002.30,0001.85
2022-05-25 14:30:00,,0826.9,5.01,0.00,25.1,24.2,00.0,34.0,27.1,20.3,0000.0,0003.68,0002.26,0001.86
2022-05-25 14:31:00,,0826.9,5.00,0.00,25.1,24.2,00.0,34.0,27.1,21.3,0000.0,0003.99,0002.23,0001.85
2022-05-25 14:32:00,,0826.8,4.98,0.00,25.1,24.2,00.0,34.1,27.1,19.5,0000.0,0003.92,0002.20,0001.84
2022-05-25 14:33:00,,0826.8,5.01,0.00,25.2,24.2,00.0,34.1,27.1,20.0,0000.0,0003.90,0002.17,0001.82
2022-05-25 14:34:00,,0826.9,5.01,0.00,25.2,24.2,00.0,34.1,27.1,18.9,0000.0,0003.78,0002.11,0001.79
2022-05-25 14:35:00,,0826.9,5.00,0.00,25.2,24.2,00.0,34.1,27.1,17.7,0000.0,0003.69,0002.09,0001.77
2022-05-25 14:36:00,,0827.0,5.00,0.00,25.2,24.2,00.0,34.1,27.1,18.7,0000.0,0003.94,0002.06,0001.75
2022-05-25 14:37:00,,0827.0,5.00,0.00,25.2,24.2,00.0,34.1,27.1,19.5,0000.0,0003.88,0002.02,0001.73
2022-05-25 14:38:00,,0827.0,5.01,0.00,25.2,24.2,00.0,34.1,27.1,19.4,0000.0,0003.79,0002.01,0001.71
2022-05-25 14:39:00,,0826.9,4.98,0.00,25.2,24.2,00.0,34.1,27.1,19.6,0000.0,0003.91,0002.02,0001.70
2022-05-25 14:40:00,,0826.9,5.00,0.00,25.2,24.2,00.0,34.1,27.1,20.6,0000.0,0003.99,0002.03,0001.71
2022-05-25 14:41:00,,0826.9,4.99,0.00,25.2,24.2,00.0,34.1,27.1,20.5,0000.0,0003.75,0002.02,0001.71
2022-05-25 14:42:00,,0826.9,5.00,0.00,25.2,24.2,00.0,34.1,27.1,19.3,0000.0,0003.31,0002.03,0001.70
2022-05-25 14:43:00,,0826.9,5.01,0.00,25.2,24.2,00.0,34.1,27.1,18.6,0000.0,0003.32,0002.02,0001.70
2022-05-25 14:44:00,,0826.9,4.99,0.00,25.2,24.2,00.0,34.1,27.1,18.0,0000.0,0003.27,0002.01,0001.70
2022-05-25 14:45:00,,0826.9,5.01,0.00,25.2,24.2,00.0,34.1,27.2,17.4,0000.0,0003.28,0002.01,0001.69
2022-05-25 14:46:00,,0826.9,5.00,0.00,25.2,24.3,00.0,34.1,27.2,20.0,0000.0,0003.70,0002.03,0001.69
2022-05-25 14:47:00,,0826.9,4.99,0.00,25.2,24.3,00.0,34.1,27.2,20.7,0000.0,0003.38,0002.02,0001.69
2022-05-25 14:48:00,,0826.9,5.00,0.00,25.2,24.3,00.0,34.1,27.2,19.0,0000.0,0003.39,0002.02,0001.68
2022-05-25 14:49:00,,0826.9,5.00,0.00,25.3,24.3,00.0,34.1,27.2,18.1,0000.0,0003.28,0001.96,0001.66
2022-05-25 14:50:00,,0826.9,5.01,0.00,25.3,24.3,00.0,34.1,27.2,18.7,0000.0,0003.14,0001.92,0001.64
2022-05-25 14:51:00,,0826.9,5.00,0.00,25.3,24.3,00.0,34.1,27.2,17.2,0000.0,0002.99,0001.88,0001.60
2022-05-25 14:52:00,,0827.0,5.02,0.00,25.3,24.4,00.0,34.1,27.2,17.8,0000.0,0002.98,0001.85,0001.57
2022-05-25 14:53:00,,0827.0,4.99,0.00,25.3,24.4,00.0,34.2,27.2,17.6,0000.0,0002.98,0001.85,0001.56
2022-05-25 14:54:00,,0826.9,5.00,0.00,25.3,24.4,00.0,34.2,27.3,15.8,0000.0,0003.77,0001.85,0001.55
2022-05-25 14:55:00,,0827.0,5.01,0.00,25.3,24.4,00.0,34.2,27.3,16.3,0000.0,0004.56,0001.85,0001.54
2022-05-25 14:56:00,,0826.9,4.99,0.00,25.3,24.4,00.0,34.2,27.3,15.5,0000.0,0004.70,0001.89,0001.54
2022-05-25 14:57:00,,0827.0,5.01,0.00,25.3,24.4,00.0,34.2,27.3,16.3,0000.0,0004.33,0001.86,0001.53
2022-05-25 14:58:00,,0826.9,5.00,0.00,25.3,24.4,00.0,34.2,27.3,17.0,0000.0,0004.22,0001.84,0001.52
2022-05-25 14:59:00,,0826.9,5.00,0.00,25.3,24.4,00.0,34.2,27.3,16.6,0000.0,0004.20,0001.83,0001.52
